Regional Weather Roundup
Issued by NWS

Home | Current Version | Previous Version | Graphics & Text | Print | Product List | Glossary On
Versions: 1 2 3 4 5 6 7 8 9 10 11 12 13 14 15 16 17 18 19 20 21 22 23 24 25 26 27 28
000
ASUS45 KBOI 290310
RWRID

IDAHO REGIONAL WEATHER ROUNDUP
NATIONAL WEATHER SERVICE BOISE ID
900 PM MDT THU APR 28 2016

NOTE: "FAIR" INDICATES FEW OR NO CLOUDS BELOW 12000 FEET
WITH NO SIGNIFICANT WEATHER AND/OR OBSTRUCTIONS TO VISIBILITY

IDZ012-014-290400-
SOUTHWEST IDAHO


CITY           SKY/WX    TMP DP  RH WIND       PRES   REMARKS
BOISE          PTCLDY    59  31  34 NW15      29.83R
CALDWELL       PTCLDY    58  37  45 NW9       29.85R
$$

IDZ016-017-290400-
SOUTHCENTRAL IDAHO


CITY           SKY/WX    TMP DP  RH WIND       PRES   REMARKS
BURLEY         CLOUDY    48  39  71 N12G20    29.84R
JEROME         CLOUDY    48  43  82 NE8       29.83F
TWIN FALLS     CLOUDY    46  42  86 E8        29.85R
$$

IDZ019>023-290400-
SOUTHEAST IDAHO


CITY           SKY/WX    TMP DP  RH WIND       PRES   REMARKS
IDAHO FALLS    CLEAR     47  27  45 N12       29.85R
POCATELLO      CLOUDY    50  30  46 N6        29.83R
REXBURG        CLEAR     46  27  47 N9        29.85R
$$

IDZ006-010-011-018-031-032-290400-
CENTRAL IDAHO MOUNTAINS


CITY           SKY/WX    TMP DP  RH WIND       PRES   REMARKS
MCCALL         CLOUDY    43  35  73 W5        29.90S
HAILEY         MOCLDY    45  37  76 CALM      29.89R
STANLEY          N/A     43  26  51 NW3       29.88R
SALMON         CLOUDY    45  34  65 CALM      29.94R
CHALLIS        MOCLDY    44  31  60 NW9       29.89R
$$

IDZ002-004-006-007-026-290400-
NORTHERN IDAHO


CITY           SKY/WX    TMP DP  RH WIND       PRES   REMARKS
LEWISTON       LGT RAIN  56  48  74 CALM      29.93S
LOWELL           N/A     53  44  71 CALM      29.94R
COEUR D`ALENE  CLOUDY    55  34  44 E9        29.94R
MULLAN PASS    LGT SNOW  32  30  92 CALM      29.97S FOG
$$




USA.gov is the U.S. government's official web portal to all federal, state and local government web resources and services.